N5CSC Weather Reports


Display with metric or nautical units.
time (UTC)temp
F
wind
direction
speed
MPH
gust
MPH
rain 1hr
in
rain 24hr
in
rain mn
in
humidity
%
barometer
mb
20260904173044 88 196 0.0 3.0 0.00 0.00 0.00 62 1012.2
20260904171540 87 108 0.0 2.0 0.00 0.00 0.00 64 1012.4
20260904170046 87 110 0.0 5.0 0.00 0.00 0.00 64 1012.6
20260904164536 87 172 0.0 4.0 0.00 0.00 0.00 64 1012.6
20260904163034 87 155 0.0 6.0 0.00 0.00 0.00 65 1012.5
20260904161533 86 173 2.0 7.0 0.00 0.00 0.00 67 1012.6
20260904160029 86 146 0.0 1.0 0.00 0.00 0.00 69 1012.6
20260904154530 85 135 0.0 1.0 0.00 0.00 0.00 70 1012.5
20260904153025 85 140 0.0 2.0 0.00 0.00 0.00 71 1012.4
20260904151521 84 154 0.0 5.0 0.00 0.00 0.00 73 1012.3
20260904150030 83 180 0.0 4.0 0.00 0.00 0.00 74 1012.2
20260904144518 83 174 0.0 3.0 0.00 0.00 0.00 76 1012.2
20260904143018 82 164 0.0 5.0 0.00 0.00 0.00 77 1012.2
20260904141530 81 196 0.0 0.0 0.00 0.00 0.00 78 1012.2
20260904140036 81 157 0.0 0.0 0.00 0.00 0.00 79 1012.2
20260904134516 80 98 0.0 0.0 0.00 0.00 0.00 79 1012.0
20260904133015 80 80 0.0 0.0 0.00 0.00 0.00 79 1012.1
20260904131512 79 115 0.0 0.0 0.00 0.00 0.00 80 1012.1
20260904130008 79 115 0.0 0.0 0.00 0.00 0.00 79 1011.8
20260904124509 79 117 0.0 0.0 0.00 0.00 0.00 79 1011.7
20260904123007 79 120 0.0 0.0 0.00 0.00 0.00 79 1011.7
20260904121507 79 131 0.0 0.0 0.00 0.00 0.00 79 1011.5
20260904120009 79 167 0.0 0.0 0.00 0.00 0.00 79 1011.3
20260904114506 79 167 0.0 0.0 0.00 0.00 0.00 78 1011.2
20260904113008 79 169 0.0 0.0 0.00 0.00 0.00 78 1010.9
20260904111501 79 169 0.0 0.0 0.00 0.00 0.00 78 1010.8
20260904110001 79 169 0.0 0.0 0.00 0.00 0.00 78 1010.9
20260904104501 79 177 0.0 0.0 0.00 0.00 0.00 78 1010.6
20260904103100 79 177 0.0 0.0 0.00 0.00 0.00 78 1010.6
20260904101607 78 177 0.0 0.0 0.00 0.00 0.00 77 1010.7
20260904094558 78 177 0.0 0.0 0.00 0.00 0.00 76 1010.5
20260904093058 78 177 0.0 0.0 0.00 0.00 0.00 75 1010.5
20260904091556 78 177 0.0 0.0 0.00 0.00 0.00 75 1010.4
20260904090055 79 177 0.0 0.0 0.00 0.00 0.00 75 1010.5
20260904084553 79 177 0.0 0.0 0.00 0.00 0.00 75 1010.5
20260904083059 79 177 0.0 0.0 0.00 0.00 0.00 75 1010.5
20260904081550 79 177 0.0 0.0 0.00 0.00 0.00 74 1010.5
20260904080054 80 177 0.0 0.0 0.00 0.00 0.00 73 1010.7
20260904074645 80 177 0.0 0.0 0.00 0.00 0.00 73 1010.7
20260904073055 80 177 0.0 0.0 0.00 0.00 0.00 73 1010.8
20260904071544 81 177 0.0 0.0 0.00 0.00 0.00 73 1010.8
20260904070045 81 181 0.0 0.0 0.00 0.00 0.00 73 1011.0
20260904064541 81 182 0.0 2.0 0.00 0.00 0.00 72 1011.0
20260904063035 82 176 0.0 0.0 0.00 0.00 0.00 71 1011.0
20260904061538 82 161 0.0 5.0 0.00 0.00 0.00 71 1011.0
20260904060047 82 158 0.0 6.0 0.00 0.00 0.00 70 1011.1
20260904054539 83 138 0.0 6.0 0.00 0.00 0.00 70 1011.2
20260904053032 83 162 0.0 2.0 0.00 0.00 0.00 69 1011.1
20260904051525 83 123 0.0 4.0 0.00 0.00 0.00 69 1011.0
20260904050037 83 180 0.0 4.0 0.00 0.00 0.00 68 1010.9
20260904044526 83 157 1.0 11.0 0.00 0.00 0.00 67 1010.8
20260904043020 83 159 1.0 6.0 0.00 0.00 0.00 66 1010.7
20260904041521 84 173 0.0 5.0 0.00 0.00 0.00 65 1010.6
20260904040035 84 162 0.0 6.0 0.00 0.00 0.00 63 1010.8
20260904034518 85 163 1.0 9.0 0.00 0.00 0.00 62 1010.7
20260904033017 85 109 2.0 9.0 0.00 0.00 0.00 60 1010.6
20260904031521 86 155 0.0 8.0 0.00 0.00 0.00 57 1010.3
20260904030016 86 128 0.0 8.0 0.00 0.00 0.00 55 1010.2
20260904024516 87 154 1.0 5.0 0.00 0.00 0.00 54 1009.8
20260904023131 86 155 1.0 7.0 0.00 0.00 0.00 54 1009.6
20260904021526 86 107 0.0 5.0 0.00 0.00 0.00 55 1009.2
20260904020012 86 125 0.0 0.0 0.00 0.00 0.00 55 1009.1
20260904014511 86 117 0.0 0.0 0.00 0.00 0.00 54 1008.9
20260904013011 86 113 0.0 4.0 0.00 0.00 0.00 53 1008.7
20260904011510 86 111 0.0 8.0 0.00 0.00 0.00 53 1008.5
20260904010010 87 109 2.0 10.0 0.00 0.00 0.00 52 1008.4
20260904004510 88 107 5.0 9.0 0.00 0.00 0.00 50 1008.3
20260904003020 89 95 2.0 9.0 0.00 0.00 0.00 48 1008.1
20260904001611 91 114 6.0 13.0 0.00 0.00 0.00 45 1007.9
20260904000008 94 90 5.0 16.0 0.00 0.00 0.00 39 1007.6
20260903234507 96 82 2.0 10.0 0.00 0.00 0.00 36 1007.4
20260903233006 99 75 8.0 14.0 0.00 0.00 0.00 31 1007.1
20260903231507 102 109 0.0 4.0 0.00 0.00 0.00 26 1006.9
20260903230005 102 106 0.0 4.0 0.00 0.00 0.00 27 1006.8
20260903224503 102 146 0.0 5.0 0.00 0.00 0.00 27 1006.8
20260903223001 102 150 0.0 4.0 0.00 0.00 0.00 28 1006.8
20260903221601 102 109 1.0 8.0 0.00 0.00 0.00 27 1006.9
20260903220101 102 56 0.0 5.0 0.00 0.00 0.00 28 1007.0
20260903214558 101 156 0.0 3.0 0.00 0.00 0.00 29 1007.1
20260903213109 101 102 0.0 8.0 0.00 0.00 0.00 29 1007.2
20260903211554 102 213 0.0 7.0 0.00 0.00 0.00 29 1007.3
20260903210052 102 66 0.0 2.0 0.00 0.00 0.00 29 1007.6
20260903204550 101 355 0.0 5.0 0.00 0.00 0.00 31 1007.8
20260903203053 101 171 0.0 5.0 0.00 0.00 0.00 31 1008.1
20260903201546 101 54 0.0 6.0 0.00 0.00 0.00 32 1008.3
20260903200043 101 138 0.0 4.0 0.00 0.00 0.00 34 1008.3
20260903194540 100 177 1.0 10.0 0.00 0.00 0.00 36 1008.5
20260903193037 100 130 0.0 3.0 0.00 0.00 0.00 36 1008.8
20260903191540 99 144 2.0 10.0 0.00 0.00 0.00 37 1009.0
20260903190032 98 175 0.0 2.0 0.00 0.00 0.00 40 1009.3
20260903184530 99 161 1.0 6.0 0.00 0.00 0.00 40 1009.6
20260903183030 97 195 0.0 7.0 0.00 0.00 0.00 42 1009.9
20260903181523 97 157 1.0 6.0 0.00 0.00 0.00 42 1010.0
20260903180031 96 179 0.0 10.0 0.00 0.00 0.00 45 1010.3